| time (UTC) | temp C | wind direction | speed KPH | gust KPH | rain 1hr cm | rain 24hr cm | rain mn cm | humidity % | barometer mb |
| 20260506073104 | 7 | 257 | 17.7 | 32.2 | 0.00 | 0.00 | 0.00 | 94 | 1016.7 |
| 20260506071609 | 7 | 246 | 14.5 | 29.0 | 0.00 | 0.00 | 0.00 | 94 | 1016.8 |
| 20260506061548 | 7 | 244 | 16.1 | 30.6 | 0.00 | 0.00 | 0.00 | 94 | 1016.9 |
| 20260506044540 | 7 | 222 | 12.9 | 30.6 | 0.00 | 0.00 | 0.00 | 94 | 1016.9 |
| 20260506043039 | 7 | 245 | 12.9 | 24.1 | 0.00 | 0.00 | 0.00 | 94 | 1016.8 |
| 20260506041551 | 7 | 248 | 14.5 | 24.1 | 0.00 | 0.00 | 0.00 | 94 | 1016.9 |
| 20260506040038 | 7 | 259 | 16.1 | 32.2 | 0.00 | 0.00 | 0.00 | 94 | 1016.8 |
| 20260506034534 | 7 | 267 | 14.5 | 29.0 | 0.00 | 0.00 | 0.00 | 93 | 1016.9 |
| 20260506033033 | 7 | 229 | 11.3 | 29.0 | 0.00 | 0.00 | 0.00 | 93 | 1016.8 |
| 20260506031530 | 7 | 243 | 12.9 | 27.4 | 0.00 | 0.00 | 0.00 | 94 | 1016.6 |
| 20260506030031 | 7 | 266 | 12.9 | 25.7 | 0.00 | 0.00 | 0.00 | 94 | 1016.5 |
| 20260506024526 | 7 | 278 | 12.9 | 25.7 | 0.00 | 0.00 | 0.00 | 94 | 1016.4 |
| 20260506023025 | 7 | 259 | 11.3 | 25.7 | 0.00 | 0.00 | 0.00 | 94 | 1016.3 |
| 20260506021525 | 7 | 257 | 12.9 | 25.7 | 0.00 | 0.00 | 0.00 | 94 | 1016.4 |
| 20260506020025 | 7 | 247 | 11.3 | 24.1 | 0.00 | 0.00 | 0.00 | 94 | 1016.4 |
| 20260506014533 | 7 | 238 | 16.1 | 29.0 | 0.00 | 0.00 | 0.00 | 94 | 1016.5 |
| 20260506013028 | 7 | 245 | 16.1 | 30.6 | 0.00 | 0.00 | 0.00 | 94 | 1016.5 |
| 20260506011522 | 7 | 262 | 16.1 | 33.8 | 0.00 | 0.00 | 0.00 | 93 | 1016.4 |
| 20260506010025 | 7 | 268 | 14.5 | 33.8 | 0.00 | 0.00 | 0.00 | 93 | 1016.1 |
| 20260506004528 | 7 | 259 | 14.5 | 29.0 | 0.00 | 0.00 | 0.00 | 94 | 1015.8 |
| 20260506003015 | 7 | 260 | 17.7 | 32.2 | 0.00 | 0.00 | 0.00 | 94 | 1015.4 |
| 20260506001515 | 7 | 243 | 17.7 | 29.0 | 0.00 | 0.00 | 0.00 | 94 | 1015.3 |
| 20260506000018 | 7 | 239 | 16.1 | 27.4 | 0.00 | 0.00 | 0.00 | 94 | 1015.1 |
| 20260505234516 | 7 | 245 | 16.1 | 29.0 | 0.00 | 0.00 | 0.00 | 93 | 1015.0 |
| 20260505233009 | 7 | 284 | 17.7 | 32.2 | 0.00 | 0.00 | 0.00 | 93 | 1014.7 |
| 20260505231509 | 8 | 247 | 19.3 | 32.2 | 0.00 | 0.00 | 0.00 | 93 | 1014.7 |
| 20260505230014 | 8 | 255 | 17.7 | 27.4 | 0.00 | 0.00 | 0.00 | 93 | 1014.4 |
| 20260505224508 | 8 | 249 | 19.3 | 35.4 | 0.00 | 0.00 | 0.00 | 93 | 1014.3 |
| 20260505223009 | 8 | 259 | 20.9 | 35.4 | 0.00 | 0.00 | 0.00 | 93 | 1014.4 |
| 20260505221507 | 8 | 281 | 16.1 | 32.2 | 0.00 | 0.00 | 0.00 | 93 | 1014.1 |
| 20260505220017 | 8 | 243 | 19.3 | 32.2 | 0.00 | 0.00 | 0.00 | 93 | 1013.9 |
| 20260505214512 | 8 | 249 | 19.3 | 38.6 | 0.00 | 0.00 | 0.00 | 92 | 1013.7 |
| 20260505213004 | 8 | 245 | 16.1 | 35.4 | 0.00 | 0.00 | 0.00 | 92 | 1013.7 |
| 20260505211504 | 8 | 221 | 16.1 | 30.6 | 0.00 | 0.00 | 0.00 | 91 | 1013.6 |
| 20260505210006 | 8 | 233 | 22.5 | 33.8 | 0.00 | 0.00 | 0.00 | 90 | 1013.5 |
| 20260505204507 | 8 | 241 | 22.5 | 40.2 | 0.00 | 0.00 | 0.00 | 90 | 1013.6 |
| 20260505203002 | 9 | 248 | 22.5 | 40.2 | 0.00 | 0.00 | 0.00 | 90 | 1013.9 |
| 20260505201501 | 9 | 262 | 25.7 | 41.8 | 0.00 | 0.00 | 0.00 | 89 | 1014.0 |
| 20260505200100 | 9 | 226 | 24.1 | 41.8 | 0.00 | 0.00 | 0.00 | 89 | 1014.1 |
| 20260505194604 | 9 | 245 | 20.9 | 37.0 | 0.00 | 0.00 | 0.00 | 87 | 1014.0 |
| 20260505193100 | 10 | 274 | 20.9 | 37.0 | 0.00 | 0.00 | 0.00 | 87 | 1014.1 |
| 20260505191605 | 9 | 242 | 22.5 | 35.4 | 0.00 | 0.00 | 0.00 | 87 | 1014.3 |
| 20260505190116 | 9 | 193 | 24.1 | 40.2 | 0.00 | 0.00 | 0.00 | 88 | 1014.3 |
| 20260505184609 | 10 | 200 | 25.7 | 40.2 | 0.00 | 0.00 | 0.00 | 85 | 1014.3 |
| 20260505183058 | 10 | 215 | 20.9 | 38.6 | 0.00 | 0.00 | 0.00 | 85 | 1014.3 |
| 20260505181600 | 10 | 243 | 19.3 | 37.0 | 0.00 | 0.00 | 0.00 | 86 | 1014.4 |
| 20260505180056 | 10 | 248 | 22.5 | 32.2 | 0.00 | 0.00 | 0.00 | 84 | 1014.4 |
| 20260505174658 | 10 | 280 | 20.9 | 38.6 | 0.00 | 0.00 | 0.00 | 85 | 1014.4 |
| 20260505173055 | 10 | 233 | 22.5 | 37.0 | 0.00 | 0.00 | 0.00 | 85 | 1014.4 |
| 20260505171555 | 9 | 211 | 17.7 | 30.6 | 0.00 | 0.00 | 0.00 | 86 | 1014.5 |
| 20260505170105 | 10 | 253 | 20.9 | 35.4 | 0.00 | 0.00 | 0.00 | 85 | 1014.5 |
| 20260505164554 | 10 | 269 | 24.1 | 38.6 | 0.00 | 0.00 | 0.00 | 83 | 1014.5 |
| 20260505163059 | 10 | 252 | 17.7 | 29.0 | 0.00 | 0.00 | 0.00 | 82 | 1014.5 |
| 20260505161551 | 10 | 267 | 12.9 | 27.4 | 0.00 | 0.00 | 0.00 | 83 | 1014.6 |
| 20260505153102 | 10 | 245 | 19.3 | 35.4 | 0.00 | 0.00 | 0.00 | 82 | 1014.5 |
| 20260505151548 | 10 | 238 | 20.9 | 30.6 | 0.00 | 0.00 | 0.00 | 83 | 1014.4 |
| 20260505124524 | 8 | 231 | 17.7 | 40.2 | 0.00 | 0.00 | 0.00 | 84 | 1013.6 |
| 20260505123034 | 8 | 262 | 20.9 | 40.2 | 0.00 | 0.00 | 0.00 | 85 | 1013.6 |
| 20260505121523 | 8 | 226 | 19.3 | 38.6 | 0.00 | 0.00 | 0.00 | 84 | 1013.5 |
| 20260505120023 | 8 | 227 | 14.5 | 30.6 | 0.00 | 0.00 | 0.00 | 84 | 1013.3 |
| 20260505114514 | 8 | 231 | 16.1 | 37.0 | 0.00 | 0.00 | 0.00 | 84 | 1013.2 |
| 20260505113012 | 8 | 255 | 16.1 | 29.0 | 0.00 | 0.00 | 0.00 | 85 | 1012.9 |
| 20260505111516 | 7 | 289 | 14.5 | 27.4 | 0.00 | 0.00 | 0.00 | 84 | 1013.0 |
| 20260505101503 | 6 | 278 | 11.3 | 25.7 | 0.00 | 0.00 | 0.00 | 89 | 1012.6 |
| 20260505100110 | 5 | 264 | 12.9 | 22.5 | 0.00 | 0.00 | 0.00 | 90 | 1012.6 |
| 20260505094608 | 5 | 249 | 11.3 | 25.7 | 0.00 | 0.00 | 0.00 | 91 | 1012.3 |
| 20260505093059 | 5 | 244 | 11.3 | 22.5 | 0.00 | 0.00 | 0.00 | 90 | 1012.4 |
| 20260505091556 | 5 | 333 | 11.3 | 20.9 | 0.00 | 0.00 | 0.00 | 90 | 1012.2 |
| 20260505090108 | 5 | 262 | 12.9 | 25.7 | 0.00 | 0.00 | 0.00 | 90 | 1012.2 |
| 20260505084553 | 5 | 274 | 12.9 | 24.1 | 0.00 | 0.00 | 0.00 | 90 | 1012.0 |
| 20260505083106 | 5 | 246 | 12.9 | 24.1 | 0.00 | 0.00 | 0.00 | 90 | 1011.9 |
| 20260505081551 | 5 | 250 | 12.9 | 20.9 | 0.00 | 0.00 | 0.00 | 89 | 1011.8 |